When you browse on this site, cookies collect data to enhance your experience and personalize the content and advertising you see.
Visit our Privacy Policy to learn more. By continuing to use the site, you agree to this use of cookies and data.
  • In Hungary
  • List of Countries
  • For 7 days
  • Water Temperature
  • Satellite Maps
  • Weather Map
  • News
  • Weather Widgets
  • user-avatar
    Login

    Hourly Weather Ogbomosho

    Today, 20 January, Sunday

    Time Temperature Precipitation Wind Pressure Humidity
    00:00 +28°C° 0 mm 3 mps 731 mmHg 73%
    01:00 +28°C° 0.3 mm 2 mps 731 mmHg 75%
    02:00 +28°C° 0.3 mm 2 mps 731 mmHg 76%
    03:00 +27°C° 0.3 mm 2 mps 731 mmHg 78%
    04:00 +27°C° 0.3 mm 2 mps 731 mmHg 79%
    05:00 +27°C° 0.3 mm 2 mps 731 mmHg 80%
    06:00 +27°C° 0.3 mm 2 mps 731 mmHg 81%
    07:00 +28°C° 0.2 mm 2 mps 732 mmHg 72%
    08:00 +30°C° 0.2 mm 2 mps 732 mmHg 62%
    09:00 +32°C° 0.2 mm 2 mps 733 mmHg 52%
    10:00 +35°C° 0 mm 2 mps 732 mmHg 46%
    11:00 +37°C° 0 mm 2 mps 732 mmHg 39%
    12:00 +37°C° 0 mm 1 mps 732 mmHg 32%
    13:00 +37°C° 0 mm 1 mps 731 mmHg 32%
    14:00 +37°C° 0 mm 1 mps 731 mmHg 31%
    15:00 +37°C° 0 mm 1 mps 730 mmHg 30%
    16:00 +37°C° 0 mm 2 mps 730 mmHg 33%
    17:00 +36°C° 0 mm 2 mps 730 mmHg 35%
    18:00 +35°C° 0 mm 3 mps 730 mmHg 38%
    19:00 +35°C° 0 mm 2 mps 731 mmHg 40%
    20:00 +34°C° 0 mm 2 mps 731 mmHg 42%
    21:00 +32°C° 0 mm 2 mps 732 mmHg 44%
    22:00 +31°C° 0 mm 2 mps 732 mmHg 50%
    23:00 +30°C° 0 mm 2 mps 731 mmHg 56%

    Tomorrow, 21 January, Monday

    Time Temperature Precipitation Wind Pressure Humidity
    00:00 +29°C° 0 mm 2 mps 731 mmHg 62%
    01:00 +29°C° 0 mm 2 mps 731 mmHg 66%
    02:00 +28°C° 0 mm 2 mps 731 mmHg 70%
    03:00 +28°C° 0 mm 2 mps 731 mmHg 74%
    04:00 +27°C° 0.2 mm 2 mps 731 mmHg 76%
    05:00 +27°C° 0.2 mm 2 mps 731 mmHg 78%
    06:00 +27°C° 0.2 mm 1 mps 731 mmHg 80%
    07:00 +28°C° 0.1 mm 1 mps 732 mmHg 71%
    08:00 +30°C° 0.1 mm 2 mps 732 mmHg 63%
    09:00 +32°C° 0.1 mm 2 mps 733 mmHg 54%
    10:00 +35°C° 0 mm 2 mps 733 mmHg 47%
    11:00 +36°C° 0 mm 1 mps 732 mmHg 40%
    12:00 +39°C° 0 mm 1 mps 732 mmHg 32%
    13:00 +39°C° 0 mm 1 mps 731 mmHg 31%
    14:00 +39°C° 0 mm 1 mps 730 mmHg 30%
    15:00 +39°C° 0 mm 1 mps 729 mmHg 29%
    16:00 +37°C° 0 mm 1 mps 729 mmHg 31%
    17:00 +37°C° 0 mm 2 mps 729 mmHg 33%
    18:00 +37°C° 0 mm 2 mps 730 mmHg 35%
    19:00 +36°C° 0.3 mm 2 mps 730 mmHg 39%
    20:00 +34°C° 0.3 mm 2 mps 731 mmHg 43%
    21:00 +32°C° 0.3 mm 2 mps 731 mmHg 47%
    22:00 +31°C° 0 mm 2 mps 731 mmHg 56%
    23:00 +30°C° 0 mm 3 mps 731 mmHg 65%

    Day after tomorrow, 22 January, Tuesday

    Time Temperature Precipitation Wind Pressure Humidity
    00:00 +29°C° 0 mm 3 mps 731 mmHg 74%
    01:00 +28°C° 0 mm 3 mps 730 mmHg 76%
    02:00 +28°C° 0 mm 3 mps 730 mmHg 79%
    03:00 +27°C° 0 mm 3 mps 730 mmHg 81%
    04:00 +27°C° 0 mm 2 mps 730 mmHg 82%
    05:00 +27°C° 0 mm 2 mps 730 mmHg 82%
    06:00 +27°C° 0 mm 1 mps 731 mmHg 83%
    07:00 +29°C° 0 mm 1 mps 731 mmHg 76%
    08:00 +30°C° 0 mm 1 mps 732 mmHg 68%
    09:00 +32°C° 0 mm 2 mps 733 mmHg 61%
    10:00 +34°C° 0 mm 1 mps 732 mmHg 50%
    11:00 +37°C° 0 mm 1 mps 732 mmHg 38%
    12:00 +40°C° 0 mm 1 mps 731 mmHg 27%
    13:00 +40°C° 0 mm 1 mps 730 mmHg 25%
    14:00 +41°C° 0 mm 1 mps 729 mmHg 23%
    15:00 +41°C° 0 mm 1 mps 729 mmHg 20%
    16:00 +39°C° 0 mm 1 mps 729 mmHg 22%
    17:00 +37°C° 0 mm 1 mps 729 mmHg 23%
    18:00 +36°C° 0 mm 1 mps 729 mmHg 24%
    19:00 +35°C° 0 mm 1 mps 729 mmHg 28%
    20:00 +34°C° 0 mm 1 mps 730 mmHg 31%
    21:00 +33°C° 0 mm 1 mps 730 mmHg 35%
    22:00 +32°C° 0 mm 2 mps 730 mmHg 45%
    23:00 +31°C° 0 mm 2 mps 730 mmHg 56%

    23 January, Wednesday

    Time Temperature Precipitation Wind Pressure Humidity
    00:00 +30°C° 0 mm 3 mps 730 mmHg 66%
    01:00 +29°C° 0 mm 3 mps 730 mmHg 72%
    02:00 +28°C° 0 mm 3 mps 729 mmHg 77%
    03:00 +27°C° 0 mm 2 mps 729 mmHg 82%
    04:00 +27°C° 0 mm 2 mps 730 mmHg 82%
    05:00 +27°C° 0 mm 2 mps 730 mmHg 83%
    06:00 +27°C° 0 mm 2 mps 731 mmHg 83%
    07:00 +28°C° 0 mm 2 mps 731 mmHg 77%
    08:00 +29°C° 0 mm 2 mps 732 mmHg 72%
    09:00 +30°C° 0 mm 2 mps 732 mmHg 67%
    10:00 +33°C° 0 mm 1 mps 732 mmHg 54%
    11:00 +36°C° 0 mm 1 mps 731 mmHg 41%
    12:00 +37°C° 0 mm 0 mps 731 mmHg 28%
    13:00 +37°C° 0 mm 0 mps 730 mmHg 26%
    14:00 +37°C° 0 mm 0 mps 729 mmHg 24%
    15:00 +38°C° 0 mm 0 mps 728 mmHg 22%
    16:00 +39°C° 0 mm 1 mps 729 mmHg 24%
    17:00 +37°C° 0 mm 1 mps 729 mmHg 26%
    18:00 +36°C° 0 mm 1 mps 729 mmHg 27%
    19:00 +35°C° 0 mm 2 mps 729 mmHg 39%
    20:00 +33°C° 0 mm 3 mps 730 mmHg 52%
    21:00 +32°C° 0 mm 4 mps 730 mmHg 64%
    22:00 +30°C° 0 mm 4 mps 730 mmHg 67%
    23:00 +29°C° 0 mm 3 mps 730 mmHg 70%

    24 January, Thursday

    Time Temperature Precipitation Wind Pressure Humidity
    00:00 +29°C° 0 mm 3 mps 730 mmHg 73%
    01:00 +28°C° 0 mm 3 mps 729 mmHg 75%
    02:00 +28°C° 0 mm 3 mps 729 mmHg 78%
    03:00 +27°C° 0 mm 3 mps 729 mmHg 80%
    04:00 +28°C° 0 mm 3 mps 729 mmHg 79%
    05:00 +28°C° 0 mm 3 mps 730 mmHg 78%
    06:00 +28°C° 0 mm 2 mps 730 mmHg 77%
    07:00 +29°C° 0.1 mm 2 mps 731 mmHg 73%
    08:00 +29°C° 0.1 mm 2 mps 731 mmHg 69%
    09:00 +30°C° 0.1 mm 1 mps 732 mmHg 65%
    10:00 +32°C° 0 mm 1 mps 731 mmHg 54%
    11:00 +35°C° 0 mm 1 mps 731 mmHg 44%
    12:00 +37°C° 0 mm 1 mps 730 mmHg 33%
    13:00 +39°C° 0 mm 1 mps 730 mmHg 31%
    14:00 +39°C° 0 mm 1 mps 729 mmHg 29%
    15:00 +39°C° 0 mm 1 mps 728 mmHg 27%
    16:00 +37°C° 0 mm 1 mps 728 mmHg 29%
    17:00 +36°C° 0 mm 1 mps 728 mmHg 31%
    18:00 +36°C° 0 mm 2 mps 729 mmHg 34%
    19:00 +35°C° 0 mm 2 mps 729 mmHg 39%
    20:00 +34°C° 0 mm 3 mps 730 mmHg 44%
    21:00 +33°C° 0 mm 3 mps 731 mmHg 49%
    22:00 +31°C° 0.6 mm 3 mps 730 mmHg 57%
    23:00 +30°C° 0.6 mm 3 mps 730 mmHg 66%

    25 January, Friday

    Time Temperature Precipitation Wind Pressure Humidity
    00:00 +29°C° 0.6 mm 3 mps 730 mmHg 74%
    01:00 +28°C° 0 mm 3 mps 730 mmHg 75%
    02:00 +28°C° 0 mm 3 mps 729 mmHg 76%
    03:00 +27°C° 0 mm 2 mps 729 mmHg 77%
    04:00 +27°C° 0 mm 2 mps 730 mmHg 79%
    05:00 +27°C° 0 mm 2 mps 730 mmHg 82%
    06:00 +26°C° 0 mm 2 mps 730 mmHg 84%
    07:00 +28°C° 0 mm 2 mps 731 mmHg 78%
    08:00 +29°C° 0 mm 2 mps 731 mmHg 71%
    09:00 +31°C° 0 mm 2 mps 732 mmHg 64%
    10:00 +34°C° 0 mm 2 mps 732 mmHg 53%
    11:00 +35°C° 0 mm 1 mps 731 mmHg 42%
    12:00 +39°C° 0 mm 1 mps 731 mmHg 31%
    13:00 +40°C° 0 mm 1 mps 730 mmHg 29%
    14:00 +37°C° 0 mm 0 mps 730 mmHg 28%
    15:00 +38°C° 0 mm 0 mps 729 mmHg 26%
    16:00 +39°C° 0 mm 1 mps 729 mmHg 28%
    17:00 +37°C° 0 mm 1 mps 729 mmHg 30%
    18:00 +36°C° 0 mm 1 mps 729 mmHg 32%
    19:00 +36°C° 0 mm 2 mps 730 mmHg 40%
    20:00 +34°C° 0 mm 2 mps 730 mmHg 48%
    21:00 +33°C° 0 mm 3 mps 731 mmHg 55%
    22:00 +31°C° 0 mm 3 mps 730 mmHg 61%
    23:00 +30°C° 0 mm 2 mps 730 mmHg 67%
    Show more